Terug naar catalogus

STARLINK-30608

ActiefCommunicatieVLEO
NORAD 58091·PAYLOAD·🇺🇸 United States

Gelanceerd Oct 18, 2023 vanaf Cape Canaveral Space Force Station

Loading…

Volgende Passages (komende 24 uur)

TLE

VersSource: CelesTrak SupGP

Epoch: Sep 14, 2026, 22:31 UTC

1 58091C 23160S   26257.93868056  .00054599  00000+0  19775-2 0  2571
2 58091  43.0019  89.1961 0001358 270.2335 246.1899 15.27552135    11

Volg STARLINK-30608 in realtime met AllMySat

Download on the App Store